STARLINK-36340

operational
NORAD ID: 70125 Constellation: starlink
LEOCIRCULAR

About STARLINK-36340

Description loading...

Live Position

Loading 3D Globe...

Upcoming Passes

Altitude History

Altitude vs Time

uPlot chart will show altitude changes over time

Two-Line Element Set

1 70125C 26050X 26073.75604167 .00545530 00000+0 71255-3 0 739
2 70125 53.1639 257.4937 0010847 268.9438 0.6360 16.05563085 16
Epoch: Mar 14, 2026 • Age: 46 hours